Time,TemperatureF,DewpointF,PressureIn,WindDirection,WindDirectionDegrees,WindSpeedMPH,WindSpeedGustMPH,Humidity,HourlyPrecipIn,Conditions,Clouds,dailyrainin,SolarRadiationWatts/m^2,SoftwareType,DateUTC
2013-12-25 00:42:00,32.0,30.0,-100.00,East,90,3.0,6.0,93,0.00,,,0.00,0.000000,,2013-12-25 06:42:00,
2013-12-25 00:52:00,32.0,30.0,-100.00,East,90,3.0,6.0,93,0.00,,,0.00,0.000000,,2013-12-25 06:52:00,
2013-12-25 01:01:00,32.0,30.0,-100.00,East,90,3.0,6.0,93,0.00,,,0.00,0.000000,,2013-12-25 07:01:00,
2013-12-25 01:42:00,31.0,29.0,-100.00,ENE,77,2.0,5.0,92,0.00,,,-99.99,0.000000,,2013-12-25 07:42:00,
2013-12-25 01:52:00,31.0,29.0,-100.00,ENE,77,2.0,5.0,92,0.00,,,-99.99,0.000000,,2013-12-25 07:52:00,
2013-12-25 02:01:00,31.0,29.0,-100.00,ENE,77,2.0,5.0,92,0.00,,,-99.99,0.000000,,2013-12-25 08:01:00,
2013-12-25 02:02:00,30.0,28.0,-100.00,ENE,63,4.0,5.0,92,0.00,,,0.00,0.000000,,2013-12-25 08:02:00,
2013-12-25 02:42:00,30.0,28.0,-100.00,ENE,63,4.0,5.0,92,0.00,,,0.00,0.000000,,2013-12-25 08:42:00,
2013-12-25 02:53:00,30.0,28.0,-100.00,ENE,63,4.0,5.0,92,0.00,,,0.00,0.000000,,2013-12-25 08:53:00,
2013-12-25 03:02:00,30.0,28.0,-100.00,ENE,73,3.0,6.0,93,0.00,,,0.00,0.000000,,2013-12-25 09:02:00,
2013-12-25 03:42:00,30.0,28.0,-100.00,ENE,73,3.0,6.0,93,0.00,,,0.00,0.000000,,2013-12-25 09:42:00,
2013-12-25 03:52:00,30.0,28.0,-100.00,ENE,73,3.0,6.0,93,0.00,,,0.00,0.000000,,2013-12-25 09:52:00,
2013-12-25 04:02:00,29.0,27.0,-100.00,East,82,4.0,6.0,94,0.00,,,0.00,0.000000,,2013-12-25 10:02:00,
2013-12-25 04:43:00,29.0,27.0,-100.00,East,82,4.0,6.0,94,0.00,,,0.00,0.000000,,2013-12-25 10:43:00,
2013-12-25 04:53:00,29.0,27.0,-100.00,East,82,4.0,6.0,94,0.00,,,0.00,0.000000,,2013-12-25 10:53:00,
2013-12-25 05:02:00,28.0,27.0,-100.00,East,95,3.0,6.0,97,0.00,,,0.00,0.000000,,2013-12-25 11:02:00,
2013-12-25 05:43:00,28.0,27.0,-100.00,East,95,3.0,6.0,97,0.00,,,0.00,0.000000,,2013-12-25 11:43:00,
2013-12-25 05:52:00,28.0,27.0,-100.00,East,95,3.0,6.0,97,0.00,,,0.00,0.000000,,2013-12-25 11:52:00,
2013-12-25 06:02:00,29.0,28.0,-100.00,East,79,3.0,6.0,96,0.00,,,0.00,0.000000,,2013-12-25 12:02:00,
2013-12-25 06:42:00,29.0,28.0,-100.00,East,79,3.0,6.0,96,0.00,,,0.00,0.000000,,2013-12-25 12:42:00,
2013-12-25 06:52:00,29.0,28.0,-100.00,East,79,3.0,6.0,96,0.00,,,0.00,0.000000,,2013-12-25 12:52:00,
2013-12-25 07:02:00,28.0,27.0,-100.00,East,85,3.0,6.0,97,0.00,,,0.00,0.000000,,2013-12-25 13:02:00,
2013-12-25 07:42:00,28.0,27.0,-100.00,East,85,3.0,6.0,97,0.00,,,0.00,0.000000,,2013-12-25 13:42:00,
2013-12-25 07:52:00,28.0,27.0,-100.00,East,85,3.0,6.0,97,0.00,,,0.00,0.000000,,2013-12-25 13:52:00,
2013-12-25 08:02:00,29.0,28.0,-100.00,ENE,75,3.0,6.0,96,0.00,,,0.00,12.000000,,2013-12-25 14:02:00,
2013-12-25 08:42:00,29.0,28.0,-100.00,ENE,75,3.0,6.0,96,0.00,,,0.00,12.000000,,2013-12-25 14:42:00,
2013-12-25 08:52:00,29.0,28.0,-100.00,ENE,75,3.0,6.0,96,0.00,,,0.00,12.000000,,2013-12-25 14:52:00,
2013-12-25 09:02:00,34.0,31.0,-100.00,East,86,3.0,6.0,87,0.00,,,0.00,121.000000,,2013-12-25 15:02:00,
2013-12-25 09:43:00,34.0,31.0,-100.00,East,86,3.0,6.0,87,0.00,,,0.00,121.000000,,2013-12-25 15:43:00,
2013-12-25 09:54:00,34.0,31.0,-100.00,East,86,3.0,6.0,87,0.00,,,0.00,121.000000,,2013-12-25 15:54:00,
2013-12-25 10:02:00,38.0,32.0,-100.00,East,81,3.0,9.0,79,0.00,,,0.00,268.000000,,2013-12-25 16:02:00,
2013-12-25 10:42:00,38.0,32.0,-100.00,East,81,3.0,9.0,79,0.00,,,0.00,268.000000,,2013-12-25 16:42:00,
2013-12-25 10:53:00,38.0,32.0,-100.00,East,81,3.0,9.0,79,0.00,,,0.00,268.000000,,2013-12-25 16:53:00,
2013-12-25 11:02:00,40.0,33.0,-100.00,ENE,74,3.0,6.0,75,0.00,,,0.00,239.000000,,2013-12-25 17:02:00,
2013-12-25 11:42:00,40.0,33.0,-100.00,ENE,74,3.0,6.0,75,0.00,,,0.00,239.000000,,2013-12-25 17:42:00,
2013-12-25 11:52:00,40.0,33.0,-100.00,ENE,74,3.0,6.0,75,0.00,,,0.00,239.000000,,2013-12-25 17:52:00,
2013-12-25 12:42:00,45.0,34.0,-100.00,South,191,2.0,5.0,64,0.00,,,0.00,401.000000,,2013-12-25 18:42:00,
2013-12-25 12:52:00,45.0,34.0,-100.00,South,191,2.0,5.0,64,0.00,,,0.00,401.000000,,2013-12-25 18:52:00,
2013-12-25 13:01:00,45.0,34.0,-100.00,South,191,2.0,5.0,64,0.00,,,0.00,401.000000,,2013-12-25 19:01:00,
2013-12-25 13:42:00,49.0,33.0,-100.00,WNW,298,4.0,5.0,54,0.00,,,0.00,451.000000,,2013-12-25 19:42:00,
2013-12-25 13:52:00,49.0,33.0,-100.00,WNW,298,4.0,5.0,54,0.00,,,0.00,451.000000,,2013-12-25 19:52:00,
2013-12-25 14:01:00,49.0,33.0,-100.00,WNW,298,4.0,5.0,54,0.00,,,0.00,451.000000,,2013-12-25 20:01:00,
2013-12-25 14:02:00,48.0,34.0,-100.00,SSW,198,3.0,7.0,57,0.00,,,0.00,344.000000,,2013-12-25 20:02:00,
2013-12-25 14:42:00,48.0,34.0,-100.00,SSW,198,3.0,7.0,57,0.00,,,0.00,344.000000,,2013-12-25 20:42:00,
2013-12-25 14:52:00,48.0,34.0,-100.00,SSW,198,3.0,7.0,57,0.00,,,0.00,344.000000,,2013-12-25 20:52:00,
2013-12-25 15:02:00,49.0,33.0,-100.00,WSW,252,4.0,8.0,54,0.00,,,0.00,200.000000,,2013-12-25 21:02:00,
2013-12-25 15:43:00,49.0,33.0,-100.00,WSW,252,4.0,8.0,54,0.00,,,0.00,200.000000,,2013-12-25 21:43:00,
2013-12-25 15:53:00,49.0,33.0,-100.00,WSW,252,4.0,8.0,54,0.00,,,0.00,200.000000,,2013-12-25 21:53:00,
2013-12-25 16:02:00,50.0,35.0,-100.00,West,265,4.0,10.0,57,0.00,,,0.00,267.000000,,2013-12-25 22:02:00,
2013-12-25 16:43:00,50.0,35.0,-100.00,West,265,4.0,10.0,57,0.00,,,0.00,267.000000,,2013-12-25 22:43:00,
2013-12-25 16:53:00,50.0,35.0,-100.00,West,265,4.0,10.0,57,0.00,,,0.00,267.000000,,2013-12-25 22:53:00,
2013-12-25 17:43:00,46.0,36.0,-100.00,WSW,237,3.0,5.0,69,0.00,,,0.00,57.000000,,2013-12-25 23:43:00,
2013-12-25 17:52:00,46.0,36.0,-100.00,WSW,237,3.0,5.0,69,0.00,,,0.00,57.000000,,2013-12-25 23:52:00,
2013-12-25 18:01:00,46.0,36.0,-100.00,WSW,237,3.0,5.0,69,0.00,,,0.00,57.000000,,2013-12-26 00:01:00,
2013-12-25 18:22:00,42.0,36.0,-100.00,North,-999,0.0,4.0,80,0.00,,,0.00,3.000000,,2013-12-26 00:22:00,
2013-12-25 18:32:00,42.0,36.0,-100.00,North,-999,0.0,4.0,80,0.00,,,0.00,3.000000,,2013-12-26 00:32:00,
2013-12-25 18:42:00,42.0,36.0,-100.00,North,-999,0.0,4.0,80,0.00,,,0.00,3.000000,,2013-12-26 00:42:00,
2013-12-25 18:52:00,42.0,36.0,-100.00,North,-999,0.0,4.0,80,0.00,,,0.00,3.000000,,2013-12-26 00:52:00,
2013-12-25 19:01:00,42.0,36.0,-100.00,North,-999,0.0,4.0,80,0.00,,,0.00,3.000000,,2013-12-26 01:01:00,
2013-12-25 19:02:00,39.0,35.0,-100.00,WSW,242,1.0,2.0,86,0.00,,,0.00,0.000000,,2013-12-26 01:02:00,
2013-12-25 19:42:00,39.0,35.0,-100.00,WSW,242,1.0,2.0,86,0.00,,,0.00,0.000000,,2013-12-26 01:42:00,
2013-12-25 19:52:00,39.0,35.0,-100.00,WSW,242,1.0,2.0,86,0.00,,,0.00,0.000000,,2013-12-26 01:52:00,
2013-12-25 20:02:00,35.0,33.0,-100.00,North,10,1.0,2.0,94,0.00,,,0.00,0.000000,,2013-12-26 02:02:00,
2013-12-25 20:52:00,35.0,33.0,-100.00,North,10,1.0,2.0,94,0.00,,,0.00,0.000000,,2013-12-26 02:52:00,
2013-12-25 21:02:00,36.0,34.0,-100.00,NW,309,3.0,4.0,93,0.00,,,0.00,0.000000,,2013-12-26 03:02:00,
2013-12-25 21:43:00,36.0,34.0,-100.00,NW,309,3.0,4.0,93,0.00,,,0.00,0.000000,,2013-12-26 03:43:00,
2013-12-25 21:53:00,36.0,34.0,-100.00,NW,309,3.0,4.0,93,0.00,,,0.00,0.000000,,2013-12-26 03:53:00,
2013-12-25 22:02:00,36.0,34.0,-100.00,WNW,295,2.0,5.0,92,0.00,,,0.00,0.000000,,2013-12-26 04:02:00,
2013-12-25 22:43:00,36.0,34.0,-100.00,WNW,295,2.0,5.0,92,0.00,,,0.00,0.000000,,2013-12-26 04:43:00,
2013-12-25 22:52:00,36.0,34.0,-100.00,WNW,295,2.0,5.0,92,0.00,,,0.00,0.000000,,2013-12-26 04:52:00,
2013-12-25 23:02:00,33.0,32.0,-100.00,West,276,2.0,5.0,98,0.00,,,0.00,0.000000,,2013-12-26 05:02:00,
2013-12-25 23:43:00,33.0,32.0,-100.00,West,276,2.0,5.0,98,0.00,,,0.00,0.000000,,2013-12-26 05:43:00,
2013-12-25 23:53:00,33.0,32.0,-100.00,West,276,2.0,5.0,98,0.00,,,0.00,0.000000,,2013-12-26 05:53:00,